Vorticity
6 3 -4 16 12 -1 -5 -3 -5 -6 -4 3 8 5 6 4 3 9 13 3 7 13 12 25 7 8 5 2 1 2 3 3 4 9 14 4 3 4 6 11 6 16 -0 6
6 2 11 8 9 11 10 5 8 12 21 21 17 13 1 6 7 9 10 11 9 12 10 18 16 16 8 7 4 1 2 0 5 13 13 6 12 14 11 9 16 -3 -4 -17
1 -6 -1 23 15 9 9 7 6 0 -2 6 18 40 65 47 33 34 32 36 24 14 13 13 18 14 17 7 6 5 3 5 -2 18 8 7 6 12 8 12 2 18 20 4
16 16 7 7 8 7 4 16 14 14 20 5 -10 -8 3 7 4 15 34 41 29 24 33 17 17 19 16 14 11 5 8 5 5 17 5 6 7 18 17 8 10 1 28 12
-5 5 19 23 18 20 -1 7 10 6 7 12 24 5 7 -9 -5 -5 -10 49 43 6 18 12 24 19 17 13 13 14 5 8 10 9 3 5 11 15 13 10 12 3 -3 -1
-1 -7 -13 1 11 13 11 12 12 9 15 29 31 -19 21 24 28 28 3 -18 11 0 2 14 16 24 18 16 7 13 12 5 12 9 6 8 14 23 11 6 10 7 -5 6
17 17 10 9 11 14 9 -2 17 17 10 -3 16 38 -56 -27 -25 -36 -5 7 9 11 10 30 11 19 21 17 13 9 11 4 16 5 7 11 11 14 7 5 15 -1 12 9
8 18 30 27 30 -5 29 8 -32 13 2 -2 33 9 5 3 15 -5 -15 15 12 18 17 -1 13 14 20 18 15 12 12 9 5 9 8 10 9 9 5 14 4 -6 10 12
12 16 14 13 10 15 40 19 12 7 20 27 -9 -11 -12 25 33 22 45 34 1 14 29 19 8 16 14 21 14 13 5 8 7 5 10 9 9 13 15 4 6 11 -4 7
14 2 25 9 8 8 -10 8 13 17 12 8 17 7 -25 -36 -0 14 -12 -7 11 19 18 38 2 26 12 21 15 13 5 7 5 3 9 11 11 10 8 5 1 8 12 4
13 2 3 8 14 25 26 6 -19 -2 -20 -4 15 15 19 22 32 -4 12 7 -12 -14 35 32 11 20 11 23 18 10 7 7 3 5 5 13 12 23 6 1 -2 14 4 3
9 9 6 -22 7 14 8 2 21 -26 20 26 -10 -0 15 12 -9 19 13 -0 -6 8 10 33 25 11 15 20 14 8 8 6 4 5 5 11 15 11 6 -5 13 6 4 2
18 12 9 20 25 29 12 0 35 10 16 -3 -29 -3 27 26 3 6 14 7 31 2 14 39 26 19 15 20 10 6 7 5 5 7 7 12 11 10 3 11 8 5 3 2
5 5 -18 -33 -34 -23 -14 -3 2 38 0 -1 3 -4 -0 -31 -12 -1 -7 1 -22 20 4 43 34 15 26 17 10 4 6 2 6 9 9 10 12 6 10 9 5 3 3 2
8 -2 3 3 8 13 20 16 36 30 1 -2 0 11 12 11 23 18 4 28 22 13 13 43 31 6 6 19 14 6 5 6 6 11 8 9 3 11 10 7 5 4 3 2
-8 4 -8 1 49 22 -0 43 10 33 33 34 24 -0 39 22 30 2 15 17 20 9 33 40 24 8 -5 10 16 11 6 7 5 13 7 14 3 11 8 6 4 4 3 3
8 -1 1 18 -24 48 53 -1 19 12 21 24 36 18 6 -5 -0 10 26 17 10 29 23 23 18 24 23 18 19 10 9 5 18 -4 11 -0 12 10 7 5 4 3 4 6
-3 10 10 -13 52 19 -41 12 27 24 9 43 28 17 22 23 24 29 37 36 33 30 21 18 8 6 17 15 10 14 10 7 9 2 5 16 8 7 6 4 4 5 8 10
9 -4 -3 9 -10 -4 14 11 24 17 -2 27 23 18 6 20 50 15 25 28 37 34 28 29 32 28 16 10 9 6 9 7 10 14 10 7 6 5 4 5 8 10 9 6
30 25 2 -0 10 7 -27 9 0 25 -14 17 24 17 20 25 25 15 23 17 17 14 14 13 11 7 7 7 7 7 7 9 9 8 7 6 6 6 8 9 9 6 8 7
6 28 20 16 -5 12 7 16 28 16 -13 14 23 11 3 5 10 21 4 4 3 11 10 6 5 6 6 8 9 10 10 10 8 7 7 7 8 9 9 7 8 7 9 9
8 14 15 30 7 21 -15 10 10 6 21 18 0 -1 2 13 -12 3 17 8 7 8 8 7 8 7 8 9 10 10 10 8 8 9 8 9 8 6 8 8 8 8 10 9
12 -4 1 -7 -11 7 20 11 10 9 18 38 11 -1 13 8 4 20 0 14 10 4 9 8 9 10 10 10 9 8 9 7 8 9 8 6 7 8 8 8 10 10 8 7
23 11 -1 8 -9 7 25 14 8 9 19 26 24 7 -5 21 6 6 5 10 7 8 10 6 10 8 9 9 8 3 6 8 7 6 6 7 7 7 10 11 9 7 6 6
4 2 0 4 18 12 14 13 11 10 8 15 26 23 16 12 13 23 16 6 3 7 9 9 11 8 9 10 10 8 7 5 5 7 7 7 9 11 10 8 7 6 6 7
14 1 -20 5 1 1 10 4 11 9 11 10 15 15 12 10 11 11 14 14 14 10 9 10 10 8 8 8 7 5 6 8 8 8 9 11 11 9 7 7 6 7 8 7
Height
3059 3061 3061 3065 3067 3069 3068 3070 3070 3069 3067 3065 3058 3051 3054 3055 3053 3052 3055 3056 3057 3059 3064 3067 3070 3074 3078 3083 3087 3092 3095 3098 3099 3100 3101 3102 3103 3104 3104 3104 3106 3106 3107 3108
3056 3054 3059 3060 3062 3063 3065 3065 3065 3065 3064 3061 3054 3034 3042 3043 3041 3044 3045 3046 3048 3050 3053 3057 3061 3065 3068 3073 3077 3082 3086 3089 3092 3093 3095 3095 3096 3097 3098 3098 3099 3100 3102 3102
3051 3052 3053 3055 3058 3060 3060 3059 3060 3060 3061 3057 3050 3026 3031 3030 3030 3033 3034 3035 3038 3040 3043 3046 3051 3054 3057 3061 3066 3073 3078 3081 3084 3085 3087 3089 3090 3091 3091 3092 3094 3095 3097 3098
3047 3048 3049 3051 3053 3056 3057 3057 3055 3056 3057 3055 3051 3030 3023 3025 3025 3024 3026 3028 3029 3029 3031 3035 3038 3042 3045 3050 3057 3063 3068 3072 3075 3077 3080 3082 3083 3084 3086 3088 3089 3091 3092 3093
3044 3044 3045 3046 3049 3052 3052 3051 3052 3053 3052 3050 3045 3047 3009 3016 3016 3017 3021 3021 3020 3022 3022 3023 3026 3030 3035 3040 3045 3052 3058 3062 3067 3070 3073 3075 3076 3076 3079 3082 3083 3085 3087 3089
3040 3041 3041 3044 3046 3048 3048 3049 3049 3049 3049 3040 3032 3036 3002 3010 3010 3010 3012 3014 3013 3012 3012 3012 3015 3017 3022 3028 3033 3040 3047 3053 3059 3062 3065 3067 3068 3070 3073 3075 3078 3080 3081 3083
3036 3035 3037 3039 3042 3044 3046 3048 3046 3043 3040 3026 3024 3025 2998 3003 3004 3007 3006 3004 3004 3003 3003 3003 3005 3007 3012 3016 3023 3031 3038 3045 3050 3054 3057 3060 3062 3065 3068 3070 3073 3076 3078 3079
3033 3034 3032 3033 3035 3039 3038 3043 3040 3030 3022 3018 3021 3006 2994 2994 2996 2998 2997 2997 2995 2994 2995 2996 2997 2999 3002 3009 3016 3023 3032 3038 3044 3048 3051 3053 3055 3059 3061 3065 3069 3070 3073 3075
3030 3030 3029 3030 3031 3034 3034 3034 3037 3034 3028 3025 3010 2995 2990 2988 2987 2988 2989 2989 2990 2987 2986 2987 2989 2991 2994 3000 3008 3018 3026 3032 3038 3042 3045 3047 3050 3054 3057 3062 3063 3066 3068 3070
3027 3029 3025 3026 3028 3028 3027 3030 3031 3030 3020 3008 2993 2992 2986 2983 2985 2983 2983 2983 2984 2982 2980 2979 2982 2985 2988 2994 3003 3011 3019 3027 3032 3036 3039 3042 3046 3049 3054 3056 3060 3061 3064 3065
3024 3026 3024 3022 3017 3018 3021 3020 3020 3020 3013 3002 2991 2982 2979 2980 2980 2980 2977 2976 2976 2975 2973 2974 2975 2978 2983 2988 2996 3005 3013 3020 3026 3031 3035 3038 3041 3044 3049 3052 3055 3057 3058 3060
3020 3020 3016 3012 3013 3013 3014 3012 3012 3010 3000 2994 2992 2970 2977 2976 2976 2975 2973 2972 2971 2970 2969 2967 2969 2973 2977 2984 2992 3000 3007 3014 3021 3026 3030 3033 3037 3041 3044 3048 3050 3052 3054 3055
3016 3015 3014 3008 3009 3008 3004 3002 2999 2994 2993 2983 2982 2962 2968 2971 2971 2970 2970 2968 2966 2965 2964 2962 2964 2968 2973 2980 2988 2996 3003 3010 3017 3022 3026 3029 3033 3037 3041 3043 3045 3048 3049 3049
3013 3010 3009 3006 3003 3003 2997 2992 2989 2987 2984 2970 2966 2953 2964 2967 2966 2965 2965 2962 2959 2959 2958 2956 2958 2963 2969 2976 2984 2992 3000 3007 3013 3018 3022 3026 3030 3034 3036 3038 3041 3043 3044 3044
3009 3004 3004 2999 2995 2992 2986 2979 2974 2974 2967 2970 2948 2959 2954 2960 2958 2957 2955 2954 2954 2954 2952 2951 2954 2960 2966 2973 2981 2990 2997 3004 3009 3015 3019 3023 3026 3029 3032 3034 3037 3038 3039 3038
3004 3001 2999 2990 2987 2984 2977 2971 2967 2961 2958 2956 2954 2948 2951 2950 2948 2948 2946 2945 2946 2948 2946 2947 2951 2958 2964 2972 2979 2988 2995 3001 3007 3012 3015 3020 3023 3026 3028 3031 3032 3033 3032 3031
3002 3000 3000 2988 2985 2976 2971 2966 2962 2958 2954 2952 2948 2945 2946 2945 2944 2941 2939 2938 2939 2941 2941 2944 2949 2955 2962 2970 2979 2988 2994 3000 3004 3009 3012 3016 3019 3022 3024 3026 3027 3027 3026 3024
2998 2999 3000 2990 2984 2976 2972 2965 2960 2956 2951 2948 2944 2942 2940 2939 2937 2935 2933 2931 2932 2935 2938 2943 2949 2956 2964 2972 2980 2987 2993 2998 3003 3007 3009 3013 3016 3019 3021 3022 3022 3020 3019 3016
2994 2998 2998 2993 2986 2978 2971 2966 2961 2957 2954 2947 2942 2940 2938 2935 2933 2932 2932 2932 2935 2938 2941 2945 2952 2960 2967 2975 2981 2987 2992 2997 3000 3004 3008 3011 3014 3015 3016 3016 3016 3014 3012 3009
2990 2992 2996 2993 2988 2978 2971 2967 2964 2959 2956 2952 2947 2944 2941 2939 2937 2937 2938 2940 2943 2946 2949 2954 2959 2964 2972 2978 2983 2988 2993 2996 3000 3004 3007 3009 3010 3011 3011 3011 3010 3008 3006 3003
2987 2988 2988 2989 2989 2978 2974 2969 2966 2964 2964 2956 2954 2952 2949 2947 2947 2947 2946 2949 2952 2956 2959 2962 2966 2971 2976 2980 2985 2988 2992 2996 2999 3002 3004 3005 3006 3006 3006 3005 3004 3002 2999 2996
2985 2985 2984 2985 2984 2978 2972 2970 2968 2966 2962 2959 2957 2956 2954 2953 2953 2953 2954 2957 2960 2963 2965 2968 2971 2974 2978 2981 2985 2989 2993 2996 2998 3000 3001 3002 3002 3002 3001 3000 2998 2996 2992 2989
2983 2981 2981 2981 2976 2973 2971 2969 2966 2963 2960 2957 2957 2958 2959 2959 2958 2956 2960 2963 2964 2967 2970 2972 2974 2977 2980 2983 2986 2989 2992 2995 2996 2997 2998 2998 2998 2997 2996 2995 2992 2989 2986 2983
2978 2978 2977 2976 2974 2972 2969 2968 2966 2964 2961 2958 2958 2960 2961 2962 2963 2964 2965 2966 2968 2970 2972 2974 2977 2979 2982 2984 2986 2989 2992 2993 2994 2994 2994 2994 2994 2993 2991 2989 2987 2983 2980 2975
2976 2975 2974 2972 2971 2970 2969 2968 2966 2965 2963 2961 2960 2961 2962 2963 2964 2965 2967 2969 2971 2973 2975 2977 2978 2981 2983 2985 2987 2988 2989 2990 2991 2991 2991 2991 2990 2989 2987 2984 2981 2977 2973 2968
2970 2971 2971 2970 2969 2969 2968 2967 2966 2965 2965 2964 2963 2963 2963 2964 2965 2967 2968 2970 2972 2974 2976 2978 2979 2981 2983 2984 2986 2987 2988 2988 2989 2989 2988 2987 2986 2984 2982 2979 2975 2971 2966 2960